D4539 Weather Reports


Display with metric or nautical units.
time (UTC)temp
F
wind
direction
speed
MPH
gust
MPH
rain 1hr
in
rain 24hr
in
rain mn
in
humidity
%
barometer
mb
20260906090526 65 355 1.0 3.0 0.00 0.00 0.00 95 1015.6
20260906085512 65 355 2.0 3.0 0.00 0.00 0.00 94 1015.7
20260906084517 65 355 0.0 3.0 0.00 0.00 0.00 95 1015.5
20260906083523 65 355 0.0 3.0 0.00 0.00 0.00 95 1015.4
20260906082531 65 355 1.0 5.0 0.00 0.00 0.00 95 1015.6
20260906081517 65 300 3.0 4.0 0.00 0.00 0.00 94 1015.5
20260906080525 65 300 0.0 0.0 0.00 0.00 0.00 95 1015.7
20260906075516 64 300 0.0 3.0 0.00 0.00 0.00 95 1015.7
20260906074508 64 300 2.0 4.0 0.00 0.00 0.00 93 1015.5
20260906073535 65 298 0.0 1.0 0.00 0.00 0.00 92 1015.7
20260906072522 66 298 1.0 2.0 0.00 0.00 0.00 92 1015.6
20260906071515 66 298 2.0 4.0 0.00 0.00 0.00 92 1015.5
20260906070521 67 298 3.0 5.0 0.00 0.00 0.00 91 1015.6
20260906065514 67 299 2.0 4.0 0.00 0.00 0.00 92 1015.5
20260906064521 67 299 3.0 4.0 0.00 0.00 0.00 91 1015.7
20260906063509 67 299 3.0 4.0 0.00 0.00 0.00 91 1016.0
20260906062519 68 300 2.0 5.0 0.00 0.00 0.00 91 1016.1
20260906061528 68 301 0.0 4.0 0.00 0.00 0.00 90 1016.1
20260906060516 68 298 3.0 6.0 0.00 0.00 0.00 90 1016.2
20260906055524 68 304 4.0 7.0 0.00 0.00 0.00 89 1016.2
20260906054514 69 298 4.0 9.0 0.00 0.00 0.00 88 1016.2
20260906053522 69 299 5.0 9.0 0.00 0.00 0.00 88 1016.3
20260906052510 69 302 4.0 7.0 0.00 0.00 0.00 89 1016.4
20260906051514 69 313 0.0 3.0 0.00 0.00 0.00 89 1016.3
20260906050522 68 315 0.0 3.0 0.00 0.00 0.00 89 1016.5
20260906045509 69 315 1.0 3.0 0.00 0.00 0.00 89 1016.6
20260906044517 69 309 0.0 3.0 0.00 0.00 0.00 89 1016.5
20260906043522 69 309 0.0 2.0 0.00 0.00 0.00 89 1016.5
20260906042508 69 310 1.0 4.0 0.00 0.00 0.00 89 1016.5
20260906041516 68 311 1.0 4.0 0.00 0.00 0.00 90 1016.4
20260906040525 68 306 1.0 4.0 0.00 0.00 0.00 90 1016.5
20260906035513 68 306 0.0 4.0 0.00 0.00 0.00 90 1016.4
20260906034520 68 305 2.0 4.0 0.00 0.00 0.00 90 1016.6
20260906033507 68 305 2.0 3.0 0.00 0.00 0.00 90 1016.7
20260906032514 68 304 0.0 3.0 0.00 0.00 0.00 90 1016.7
20260906031544 68 304 2.0 3.0 0.00 0.00 0.00 89 1016.7
20260906030510 68 305 0.0 3.0 0.00 0.00 0.00 89 1016.8
20260906025540 69 305 2.0 4.0 0.00 0.00 0.00 88 1016.8
20260906024526 69 305 0.0 0.0 0.00 0.00 0.00 88 1017.0
20260906023511 69 305 0.0 0.0 0.00 0.00 0.00 88 1016.9
20260906022536 69 305 0.0 0.0 0.00 0.00 0.00 87 1016.8
20260906021504 69 305 0.0 3.0 0.00 0.00 0.00 88 1016.7
20260906020514 69 305 0.0 3.0 0.00 0.00 0.00 87 1016.6
20260906015520 69 305 2.0 3.0 0.00 0.00 0.00 86 1016.8
20260906014508 70 305 0.0 6.0 0.00 0.00 0.00 85 1016.5
20260906013535 71 310 4.0 5.0 0.00 0.00 0.00 83 1016.5
20260906012522 71 312 1.0 5.0 0.00 0.00 0.00 83 1016.5
20260906011509 71 314 2.0 3.0 0.00 0.00 0.00 82 1016.4
20260906010520 72 314 2.0 6.0 0.00 0.00 0.00 82 1016.5
20260906005508 72 331 3.0 6.0 0.00 0.00 0.00 82 1016.3
20260906004515 72 360 3.0 6.0 0.00 0.00 0.00 82 1016.0
20260906003523 72 342 2.0 6.0 0.00 0.00 0.00 81 1015.8
20260906002515 72 338 1.0 5.0 0.00 0.00 0.00 82 1015.6
20260906001524 73 323 2.0 5.0 0.00 0.00 0.00 80 1015.7
20260906000534 74 307 4.0 5.0 0.00 0.00 0.00 78 1015.5
20260905235524 74 310 5.0 8.0 0.00 0.00 0.00 76 1015.6
20260905234513 75 313 5.0 7.0 0.00 0.00 0.00 76 1015.5
20260905233544 75 306 1.0 7.0 0.00 0.00 0.00 75 1015.5
20260905232518 76 306 3.0 7.0 0.00 0.00 0.00 74 1015.3
20260905231507 76 310 5.0 7.0 0.00 0.00 0.00 72 1015.2
20260905230519 77 309 6.0 8.0 0.00 0.00 0.00 71 1015.5
20260905225509 77 309 5.0 9.0 0.00 0.00 0.00 70 1015.6
20260905224543 78 287 6.0 9.0 0.00 0.00 0.00 69 1015.5
20260905223513 78 299 3.0 11.0 0.00 0.00 0.00 68 1015.5
20260905222523 79 300 7.0 12.0 0.00 0.00 0.00 67 1015.5
20260905221513 79 15 5.0 11.0 0.00 0.00 0.00 66 1015.6
20260905220517 79 313 8.0 12.0 0.00 0.00 0.00 64 1015.6
20260905215521 80 317 5.0 10.0 0.00 0.00 0.00 65 1015.7
20260905214525 80 338 7.0 13.0 0.00 0.00 0.00 61 1015.7
20260905213507 80 307 5.0 14.0 0.00 0.00 0.00 63 1015.6
20260905212511 80 306 5.0 9.0 0.00 0.00 0.00 64 1015.6
20260905211533 79 355 5.0 13.0 0.00 0.00 0.00 62 1015.7
20260905210516 79 360 5.0 13.0 0.00 0.00 0.00 63 1015.5
20260905205523 80 360 6.0 16.0 0.00 0.00 0.00 63 1015.5
20260905204526 80 313 7.0 16.0 0.00 0.00 0.00 64 1015.2
20260905203512 80 295 8.0 18.0 0.00 0.00 0.00 64 1015.4
20260905202514 80 294 7.0 16.0 0.00 0.00 0.00 65 1015.4
20260905201515 79 300 7.0 15.0 0.00 0.00 0.00 68 1015.4
20260905200523 78 290 8.0 11.0 0.00 0.00 0.00 68 1015.3
20260905195517 77 280 8.0 10.0 0.00 0.00 0.00 70 1015.1
20260905194520 77 286 6.0 15.0 0.00 0.00 0.00 72 1015.1
20260905193522 76 296 6.0 10.0 0.00 0.00 0.00 72 1014.9
20260905192508 76 309 9.0 13.0 0.00 0.00 0.00 71 1014.9
20260905191513 75 320 9.0 20.0 0.00 0.00 0.00 71 1014.7
20260905190516 76 279 8.0 17.0 0.00 0.00 0.00 69 1014.7
20260905185515 75 315 10.0 15.0 0.00 0.00 0.00 70 1014.9
20260905184518 74 279 6.0 13.0 0.00 0.00 0.00 77 1015.0
20260905183520 73 286 7.0 15.0 0.00 0.00 0.00 78 1015.2
20260905182505 71 299 10.0 15.0 0.00 0.00 0.00 78 1015.2
20260905181531 71 263 7.0 13.0 0.00 0.00 0.00 83 1015.5
20260905180513 70 234 6.0 10.0 0.00 0.00 0.00 85 1015.4
20260905175518 70 300 6.0 11.0 0.00 0.00 0.00 84 1016.0
20260905174521 69 355 5.0 11.0 0.00 0.00 0.00 84 1016.3
20260905173522 70 345 6.0 14.0 0.00 0.00 0.00 84 1016.9
20260905172524 70 15 6.0 14.0 0.00 0.00 0.00 83 1017.4
20260905171512 72 298 6.0 13.0 0.00 0.00 0.00 81 1017.9
20260905170516 74 5 9.0 22.0 0.00 0.00 0.00 77 1018.4
20260905165505 79 267 14.0 21.0 0.00 0.00 0.00 76 1018.3
20260905164540 80 294 6.0 20.0 0.00 0.00 0.00 75 1017.9
20260905163530 81 320 10.0 19.0 0.00 0.00 0.00 74 1017.9
20260905162539 81 331 7.0 15.0 0.00 0.00 0.00 72 1017.8
20260905161510 82 348 6.0 15.0 0.00 0.00 0.00 72 1017.5
20260905160524 83 303 11.0 15.0 0.00 0.00 0.00 69 1017.2
20260905155514 83 5 6.0 24.0 0.00 0.00 0.00 71 1017.3
20260905154545 83 324 9.0 17.0 0.00 0.00 0.00 71 1017.4
20260905153514 82 313 6.0 17.0 0.00 0.00 0.00 75 1017.5
20260905152525 81 310 5.0 18.0 0.00 0.00 0.00 76 1017.5
20260905151514 81 346 5.0 12.0 0.00 0.00 0.00 76 1017.4
20260905150505 81 305 6.0 17.0 0.00 0.00 0.00 79 1017.3
20260905145519 81 306 7.0 12.0 0.00 0.00 0.00 77 1017.2
20260905144526 80 313 6.0 15.0 0.00 0.00 0.00 78 1017.4
20260905143534 80 315 10.0 18.0 0.00 0.00 0.00 78 1017.4
20260905142521 80 305 13.0 18.0 0.00 0.00 0.00 77 1017.4
20260905141529 79 298 10.0 17.0 0.00 0.00 0.00 79 1017.4
20260905140514 79 327 9.0 22.0 0.00 0.00 0.00 79 1017.4
20260905135541 79 306 12.0 17.0 0.00 0.00 0.00 79 1017.4
20260905134508 79 283 9.0 14.0 0.00 0.00 0.00 79 1017.3
20260905133529 78 296 5.0 12.0 0.00 0.00 0.00 79 1017.4
20260905132516 78 273 6.0 12.0 0.00 0.00 0.00 81 1017.5
20260905131507 77 321 6.0 12.0 0.00 0.00 0.00 81 1017.6
20260905130517 77 309 5.0 9.0 0.00 0.00 0.00 83 1017.7
20260905125505 76 300 4.0 6.0 0.00 0.00 0.00 85 1017.9
20260905124534 76 298 0.0 6.0 0.00 0.00 0.00 84 1017.8
20260905123520 75 298 5.0 7.0 0.00 0.00 0.00 83 1017.9
20260905122526 74 304 3.0 7.0 0.00 0.00 0.00 86 1017.9
20260905121514 74 302 4.0 8.0 0.00 0.00 0.00 85 1017.9
20260905120523 73 308 5.0 8.0 0.00 0.00 0.00 85 1017.7
20260905115511 72 302 5.0 10.0 0.00 0.00 0.00 86 1017.6
20260905114538 71 309 6.0 10.0 0.00 0.00 0.00 87 1017.5
20260905113523 70 311 7.0 9.0 0.00 0.00 0.00 88 1017.3
20260905112511 69 303 5.0 8.0 0.00 0.00 0.00 89 1017.4
20260905111542 68 298 3.0 7.0 0.00 0.00 0.00 90 1017.3
20260905110509 68 298 4.0 6.0 0.00 0.00 0.00 90 1017.2
20260905105521 68 299 4.0 8.0 0.00 0.00 0.00 90 1017.2
20260905104508 67 298 5.0 6.0 0.00 0.00 0.00 91 1017.2
20260905103514 67 298 3.0 5.0 0.00 0.00 0.00 91 1017.1
20260905102540 67 287 3.0 5.0 0.00 0.00 0.00 91 1017.2
20260905101526 67 285 3.0 4.0 0.00 0.00 0.00 91 1017.3
20260905100513 67 285 2.0 3.0 0.00 0.00 0.00 91 1017.2
20260905095520 67 285 2.0 3.0 0.00 0.00 0.00 90 1017.2
20260905094508 68 285 2.0 3.0 0.00 0.00 0.00 90 1017.0
20260905093517 68 285 2.0 4.0 0.00 0.00 0.00 89 1017.0
20260905092511 68 285 2.0 4.0 0.00 0.00 0.00 89 1016.9
20260905091521 68 285 2.0 4.0 0.00 0.00 0.00 89 1017.0